Preview of NWS' New Version of Forecast
This preview is not operational and should not be used for support decisions.
Latest weather observations around

New Orleans, New Orleans Lakefront Airport (KNEW)

Using English Units (Switch to International System of Units)
Date/ Time (CDT) Wind (mph) Vis. (mi) Weather Sky Cond. Temp (°F) Rel. Humidity Wind Chill (°F) Heat Index (°F) Pressure Precip. (in)
Air Dwpt 6 hour Altimeter (inHg) Sea level (inHg) 1 hr 3 hr 6 hr
Max Min
Jun 19 14:53 N 8 10 Clear CLR 91 75     60%   102 29.87 29.85      
Jun 19 13:53 Calm 10 Clear CLR 89 73     59%   97 29.89 29.87      
Jun 19 12:53 NNW 8 10 Partly Cloudy SCT040 89 76     65%   100 29.92 29.9      
Jun 19 11:53 NNW 8 10 Clear CLR 87 77     72%   99 29.93 29.91      
Jun 19 10:53 NW 6 10 Clear CLR 85 76     75%   94 29.93 29.91      
Jun 19 09:53 WNW 8 10 Clear CLR 84 76     77%   93 29.94 29.92      
Jun 19 08:53 W 9 10 Clear CLR 83 75     77%   90 29.94 29.92      
Jun 19 07:53 SW 8 10 Clear CLR 81 75     82%   87 29.92 29.9      
Jun 19 06:53 SSW 9 10 Clear CLR 79 75     88%   83 29.89 29.87      
Jun 19 05:53 SW 8 10 Clear CLR 78 74     87%   80 29.9 29.88      
Jun 19 04:53 SW 5 10 Clear CLR 78 74     87%   80 29.9 29.88      
Jun 19 03:53 SW 7 10 Clear CLR 79 74     85%   83 29.9 29.88      
Jun 19 02:53 SW 10 10 Clear CLR 79 74     85%   83 29.9 29.88      
Jun 19 01:53 SW 10 10 Clear CLR 80 74     82%   85 29.9 29.88      
Jun 19 00:53 SW 10 10 Clear CLR 80 74     82%   85 29.91 29.89      
Jun 18 23:53 SW 10 10 Clear CLR 81 75     82%   87 29.92 29.9      
Jun 18 22:53 SSW 9 10 Clear CLR 82 74     77%   88 29.91 29.89      
Jun 18 21:53 S 8 10 Clear CLR 80 72     76%   84 29.89 29.87      
Jun 18 20:53 SSW 9 10 Clear CLR 84 72     67%   90 29.88 29.85      
Jun 18 19:53 SSE 10 10 Clear CLR 84 74     72%   91 29.86 29.84      
Jun 18 18:53 S 10 10 Clear CLR 86 75     70%   95 29.86 29.84     1
Jun 18 17:53 SSW 8 10 Clear CLR 88 74     63%   97 29.87 29.85      
Jun 18 16:53 SSW 5 10 Mostly Clear FEW070 FEW100 86 73     65%   93 29.88 29.86      
Jun 18 15:53 SW 10 10 Mostly Clear FEW026 FEW038 84 74     72%   91 29.89 29.87   1  
Jun 18 14:53 WNW 3 10 Partly Cloudy SCT075 85 76     75%   94 29.91 29.89      
Jun 18 13:53 SSW 8 10 Mostly Clear FEW047 FEW060 80 74     82%   85 29.93 29.91 1    
Jun 18 13:43 SSW 8 10 Mostly Cloudy SCT039 BKN060 BKN110 78 74     87%   80 29.93   1    
Jun 18 13:35 S 7 8 Light Rain BKN036 BKN045 OVC060 78 75     90%   80 29.94   1    
Jun 18 13:30 S 8 2 Thunderstorms and Rain and Fog/Mist BKN030 BKN035 OVC060 77 74     90%   79 29.94   1    
Jun 18 13:20 SSW 9 0.5 Thunderstorms and Heavy Rain and Fog BKN028 OVC048 76 73     91%   77 29.95   1    
Jun 18 13:04   0.5 Heavy Rain and Fog BKN022 BKN030 OVC100 76 73     91%   77 29.95   0    
Jun 18 12:55   1.75 Light Rain FEW015 BKN050 OVC100 79 73     82%   82 29.94   0    
Jun 18 12:53   5 Light Rain FEW021 BKN050 OVC100 79 73     82%   82 29.94 29.92 0   0
Jun 18 12:45 SW 13 4 Light Rain FEW024 SCT050 BKN075 82 74     77%   88 29.94   0    
Jun 18 11:53 SW 13 10 Mostly Cloudy SCT027 BKN032 BKN039 86 74     67%   94 29.95 29.93      
Jun 18 10:53 SSW 10 10 Mostly Cloudy FEW043 BKN065 BKN120 83 75     77%   90 29.96 29.94      
Jun 18 10:20 WSW 10 10 Mostly Cloudy FEW020 SCT028 BKN110 82 75     79%   89 29.95        
Jun 18 09:53 SW 14 10 Mostly Cloudy SCT016 BKN022 BKN028 81 74     79%   86 29.96 29.93   0  
Jun 18 09:50 SW 15 10 Mostly Cloudy SCT016 BKN022 BKN028 81 75     84%   86 29.96        
Jun 18 08:53 S 13 10 Mostly Clear FEW120 76 73     91%   77 29.95 29.93 0    
Jun 18 08:35 S 16 10 Mostly Clear FEW070 75 72     90%   76 29.94   0    
Jun 18 08:26 S 16 10 Partly Cloudy FEW060 SCT085 SCT120 75 72     90%   76 29.95   0    
Jun 18 08:10 S 17 5 Thunderstorms and Rain and Fog/Mist FEW008 BKN075 OVC095 75 72     90%   76 29.95   0    
Jun 18 08:02 SSW 20 2 Thunderstorms and Rain and Fog/Mist FEW010 BKN046 OVC080 75 72     90%   76 29.96   0    
Jun 18 07:53   0.75 Thunderstorms and Heavy Rain and Fog/Mist FEW007 BKN033 OVC043 75 72     90%   76 29.95 29.93 0    
Jun 18 07:45   1.5 Thunderstorms and Heavy Rain and Fog/Mist and Squalls FEW013 BKN042 OVC060 77 73     88%   79 29.95   0    
Jun 18 07:43   2 Rain and Fog/Mist and Squalls FEW013 BKN042 OVC055 78 74     87%   80 29.95   0    
Jun 18 06:53 S 8 8 Mostly Cloudy BKN065 BKN085 BKN100 79 76     90%   83 29.93 29.91     0
Jun 18 05:53 S 6 10 Mostly Clear FEW090 FEW110 78 75     90%   80 29.93 29.91      
Jun 18 04:53 S 11 10 Partly Cloudy SCT100 78 75     90%   80 29.91 29.89      
Jun 18 03:53 SSE 11 10 Cloudy FEW070 BKN100 OVC120 78 75     90%   80 29.91 29.89 0 0  
Jun 18 02:53 SSE 8 10 Mostly Cloudy BKN100 78 75     90%   80 29.92 29.9      
Jun 18 01:53 SE 7 9 Mostly Cloudy BKN110 77 74     90%   79 29.92 29.9 0    
Jun 18 01:09 SSE 6 10 Mostly Cloudy SCT013 BKN110 76 73     91%   77 29.95        
Jun 18 00:53 SE 5 10 Mostly Cloudy BKN013 BKN110 76 73     91%   77 29.95 29.92     1
Jun 18 00:48 SE 5 10 Mostly Cloudy BKN013 75 73     94%   77 29.95        
Jun 17 23:53 SE 9 10 Clear CLR 76 73     91%   77 29.95 29.93      
Jun 17 22:53 SE 6 10 Clear CLR 75 72     90%   76 29.97 29.95 0    
Jun 17 21:53 SE 9 9 Light Rain CLR 77 72     84%   78 29.96 29.94 0 1  
Jun 17 21:02 SE 11 5 Light Rain and Fog/Mist FEW110 76 73     91%   77 29.96   0    
Jun 17 20:53 SE 10 3 Light Rain and Fog/Mist FEW080 SCT110 76 73     91%   77 29.95 29.93 0    
Jun 17 20:40 SE 13 4 Rain and Fog/Mist FEW007 BKN080 OVC110 75 72     90%   76 29.94   0    
Jun 17 20:30 SE 10 3 Thunderstorms and Rain and Fog/Mist FEW019 BKN033 OVC100 76 73     91%   77 29.94   0    
Jun 17 20:26 SE 7 1.75 Thunderstorms and Rain and Fog/Mist FEW016 BKN033 OVC080 76 73     91%   77 29.94   0    
Jun 17 20:15 S 10 1 Thunderstorms and Heavy Rain and Fog/Mist FEW011 BKN022 BKN085 75 72     90%   76 29.95   0    
Jun 17 20:08   1.75 Thunderstorms and Heavy Rain and Fog/Mist FEW012 BKN090 OVC110 78 75     90%   80 29.96   0    
Jun 17 19:53 E 8 5 Thunderstorms and Rain FEW042 SCT090 BKN110 79 74     85%   83 29.95 29.92 0    
Jun 17 19:43 E 9 3 Rain and Fog/Mist FEW042 BKN100 79 75     88%   83 29.92   0    
Jun 17 19:34 E 9 6 Light Rain FEW042 SCT060 BKN095 80 75     85%   85 29.93   0    
Jun 17 19:13 E 10 10 Clear CLR 80 74     82%   85 29.93        
Jun 17 18:53 ENE 11 10 Clear CLR 81 74     79%   86 29.93 29.91     0
Jun 17 17:53 NNE 9 10 Clear CLR 80 74     82%   85 29.92 29.91      
Jun 17 16:53 NNW 10 10 Mostly Cloudy SCT047 BKN095 BKN110 78 74     87%   80 29.93 29.91 0    
Jun 17 16:31 W 11 8 Light Rain FEW035 BKN090 OVC110 77 72     84%   78 29.94   0    
Jun 17 16:24 WSW 13 3 Light Rain SCT033 BKN070 OVC090 77 72     84%   78 29.93   0    
Jun 17 16:09   10 Thunderstorms BKN032 BKN043 OVC055 82 71     69%   86 29.93        
Jun 17 15:53 7 10 Mostly Cloudy SCT038 BKN055 BKN070 87 73     63%   95 29.93 29.91      
Jun 17 15:42 S 11 10 Mostly Cloudy SCT034 SCT060 BKN075 87 73     63%   95 29.92        
Jun 17 14:53 SSE 10 10 Mostly Cloudy SCT038 SCT050 BKN090 88 73     61%   96 29.93 29.91      
Jun 17 13:53 S 14 10 Mostly Cloudy SCT043 BKN055 90 73     58%   98 29.94 29.92      
Jun 17 12:53 SSE 10 10 Partly Cloudy SCT037 SCT055 91 74     57%   101 29.96 29.93      
Jun 17 11:53 S 14 10 Mostly Cloudy SCT036 BKN049 89 72     57%   96 29.98 29.96      
Jun 17 10:53 SSE 15 10 Partly Cloudy SCT033 88 73     61%   96 29.97 29.95      
Jun 17 09:53 SSE 11 10 Mostly Clear FEW026 87 74     65%   95 29.95 29.93      
Jun 17 07:53 SSE 8 10 Partly Cloudy FEW020 SCT026 SCT030 83 77     82%   92 29.96 29.94      
Jun 17 06:53 ESE 7 9 Clear CLR 80 76     87%   85 29.95 29.93      
Jun 17 05:53 SE 5 10 Clear CLR 78 74     87%   80 29.94 29.91      
Jun 17 04:53 Calm 10 Clear CLR 77 74     90%   79 29.92 29.9      
Jun 17 03:53 SSE 6 10 Clear CLR 77 73     88%   79 29.92 29.9      
Jun 17 02:53 SE 3 10 Clear CLR 77 72     84%   78 29.94 29.91      
Jun 17 01:53 SW 3 10 Clear CLR 77 71     82%   78 29.96 29.94      
Jun 17 00:53 ESE 6 10 Clear   78 71     79%   79 29.97 29.95      
Jun 16 23:53 ENE 15 8 Partly Cloudy SCT032 80 71     74%   84 30 29.98      
Jun 16 22:53 NNE 11 9 Clear CLR 80 73     79%   84 29.99 29.96      
Jun 16 21:53 NNW 11 9 Clear CLR 81 72     74%   85 29.98 29.96      
Jun 16 20:53 WNW 3 10 Mostly Clear FEW037 FEW120 80 70     71%   83 29.98 29.96      
Jun 16 19:53 WNW 3 10 Clear CLR 79 71     77%   82 29.98 29.96      
Jun 16 19:27 WNW 16 10 Mostly Clear FEW043 79 71     77%   82 29.99        
Jun 16 18:53 SSW 7 10 Mostly Clear FEW110 81 68     65%   84 29.96 29.94     0
Jun 16 18:38 ESE 6 10 Mostly Clear FEW120 84 71     65%   89 29.97        
Jun 16 18:08 N 10 10 Partly Cloudy SCT040 SCT047 SCT110 84 75     74%   92 29.94        
Jun 16 17:53   10 Thunderstorms BKN038 OVC049 83 75     77%   90 29.94 29.92 0    
Jun 16 17:44   10 Light Rain BKN038 OVC050 84 74     72%   91 29.94   0    
Jun 16 17:35   10 Cloudy BKN038 OVC050 83 72     70%   88 29.94        
Jun 16 17:15 S 11 10 Thunderstorms OVC050 89 70     53%   94 29.93        
Jun 16 16:53 S 6 10 Mostly Cloudy BKN050 BKN070 89 70     53%   94 29.94 29.92      
Jun 16 15:53 NE 8 10 Clear CLR 90 71     54%   96 29.93 29.91 0 0  
Jun 16 14:53   5 Light Rain FEW055 BKN095 BKN120 83 70     65%   87 29.96 29.94 0    
Jun 16 14:35   10 Mostly Cloudy FEW042 SCT080 BKN120 84 67     57%   87 29.97   0    
May 14 17:53 WNW 3 7 Clear CLR 88 71     57%   94 29.89 29.87      
May 13 08:53 NNE 5 8 Clear CLR 80 71     74%   84 30.12 30.09      
May 12 01:53 SE 7 10 Clear CLR 75 69     82%   76 30.06 30.04      
May 11 21:53 SE 9 10 Clear CLR 78 65     64%   79 30.08 30.06      
Jun 11 19:39 SE 8 8 Cloudy FEW027 BKN033 OVC055 78 77     96%   81 30.02   0    
Jun 11 19:17 SE 10 4 Light Rain and Fog/Mist FEW022 BKN030 OVC041 78 76     93%   80 30.03   0    
Notice The following observation data may not be complete
Jun 11 17:02   10 Light Rain FEW019 BKN027 OVC065          %         0    
Jun 11 14:53 SE 20 1.5 Heavy Rain and Fog/Mist SCT020 SCT032 BKN055 82 78     88%   91 30.02 30 0    
Jun 11 12:17 SE 17 10 Mostly Clear FEW025 87 75     68%   97 30.04        
Jun 09 22:53 S 7 10 Clear CLR 76 68     76%   77 29.94 29.92      
Jun 07 23:53 NNE 15 10 Clear CLR 77 64     64%   77 29.86 29.84      
Jun 07 10:53 N 16 10 Partly Cloudy FEW019 SCT023 80 71     74%   84 29.81 29.79      
Jun 06 07:53 NNE 5 10 Cloudy FEW027 BKN033 OVC044 79 73     82%   82 29.7 29.68      
Jun 06 05:53 NE 3 10 Cloudy OVC023 77 72     84%   78 29.7 29.68      
Jun 06 02:53 Calm 10 Mostly Clear FEW024 75 72     90%   76 29.7 29.68      
Jun 05 18:53 ENE 8 10 Mostly Cloudy BKN017 BKN026 BKN100 79 74     85%   83 29.71 29.69     0